KC5TIL Weather Reports


Display with metric or nautical units.
time (UTC)temp
F
wind
direction
speed
MPH
gust
MPH
rain 1hr
in
rain 24hr
in
rain mn
in
humidity
%
barometer
mb
20260502230530 78 145 0.0 2.0 0.00 0.00 0.00 35 1019.5
20260502230028 79 122 0.0 1.0 0.00 0.00 0.00 34 1019.5
20260502225523 78 181 1.0 2.0 0.00 0.00 0.00 34 1019.2
20260502225020 78 169 0.0 1.0 0.00 0.00 0.00 35 1019.6
20260502224516 79 143 0.0 1.0 0.00 0.00 0.00 33 1019.5
20260502224014 79 142 0.0 1.0 0.00 0.00 0.00 34 1019.6
20260502223511 79 135 0.0 0.0 0.00 0.00 0.00 35 1019.7
20260502223010 78 266 1.0 3.0 0.00 0.00 0.00 33 1019.7
20260502222507 77 266 2.0 2.0 0.00 0.00 0.00 35 1019.7
20260502222003 77 267 1.0 2.0 0.00 0.00 0.00 36 1019.7
20260502221458 77 192 2.0 3.0 0.00 0.00 0.00 37 1019.8
20260502220956 78 228 1.0 5.0 0.00 0.00 0.00 34 1019.8
20260502220451 78 176 2.0 3.0 0.00 0.00 0.00 34 1019.7
20260502215948 78 224 1.0 2.0 0.00 0.00 0.00 34 1019.9
20260502215446 78 110 0.0 3.0 0.00 0.00 0.00 35 1020.0
20260502214942 77 354 4.0 6.0 0.00 0.00 0.00 34 1020.0
20260502214439 78 352 3.0 3.0 0.00 0.00 0.00 33 1019.9
20260502213937 79 134 0.0 2.0 0.00 0.00 0.00 34 1020.0
20260502213433 79 353 1.0 3.0 0.00 0.00 0.00 32 1020.3
20260502212932 78 164 0.0 1.0 0.00 0.00 0.00 34 1020.2
20260502212430 77 302 2.0 3.0 0.00 0.00 0.00 35 1020.4
20260502211927 78 294 5.0 7.0 0.00 0.00 0.00 33 1020.4
20260502211423 77 177 0.0 1.0 0.00 0.00 0.00 32 1020.6
20260502210920 77 61 0.0 1.0 0.00 0.00 0.00 34 1020.5
20260502210417 77 308 2.0 6.0 0.00 0.00 0.00 37 1020.5
20260502205914 78 328 6.0 8.0 0.00 0.00 0.00 35 1020.5
20260502205410 76 148 2.0 3.0 0.00 0.00 0.00 34 1020.7
20260502204908 78 238 2.0 7.0 0.00 0.00 0.00 34 1020.6
20260502204404 77 157 1.0 3.0 0.00 0.00 0.00 37 1020.8
20260502203903 77 34 4.0 5.0 0.00 0.00 0.00 34 1020.9
20260502203400 77 351 3.0 6.0 0.00 0.00 0.00 34 1021.0
20260502202855 77 346 4.0 6.0 0.00 0.00 0.00 35 1020.9
20260502202353 77 267 3.0 6.0 0.00 0.00 0.00 35 1021.1
20260502201850 77 328 2.0 6.0 0.00 0.00 0.00 35 1021.1
20260502201346 76 137 0.0 2.0 0.00 0.00 0.00 37 1021.0
20260502200843 77 69 2.0 5.0 0.00 0.00 0.00 37 1021.3
20260502200338 78 39 0.0 2.0 0.00 0.00 0.00 36 1021.3
20260502195837 77 272 4.0 6.0 0.00 0.00 0.00 37 1021.4
20260502195333 77 2 3.0 7.0 0.00 0.00 0.00 36 1021.5
20260502194830 77 88 1.0 2.0 0.00 0.00 0.00 36 1021.3
20260502194327 77 173 1.0 1.0 0.00 0.00 0.00 35 1021.6
20260502193823 77 298 4.0 6.0 0.00 0.00 0.00 36 1021.5
20260502193320 77 338 2.0 5.0 0.00 0.00 0.00 36 1021.7
20260502192815 76 141 0.0 6.0 0.00 0.00 0.00 36 1021.6
20260502192313 76 23 2.0 7.0 0.00 0.00 0.00 35 1021.7
20260502191810 76 78 3.0 3.0 0.00 0.00 0.00 37 1021.8
20260502191308 77 97 3.0 5.0 0.00 0.00 0.00 38 1021.6
20260502190805 77 147 1.0 1.0 0.00 0.00 0.00 38 1021.9
20260502190302 76 68 2.0 3.0 0.00 0.00 0.00 37 1021.9
20260502185757 77 50 5.0 8.0 0.00 0.00 0.00 36 1022.0
20260502185253 78 233 2.0 2.0 0.00 0.00 0.00 36 1022.0
20260502184750 77 161 0.0 1.0 0.00 0.00 0.00 37 1022.0
20260502184245 77 130 0.0 1.0 0.00 0.00 0.00 37 1022.2
20260502183743 76 49 1.0 3.0 0.00 0.00 0.00 37 1022.1
20260502183239 75 195 2.0 6.0 0.00 0.00 0.00 40 1022.3
20260502182734 75 152 0.0 3.0 0.00 0.00 0.00 36 1022.2
20260502182230 75 237 1.0 3.0 0.00 0.00 0.00 39 1022.5
20260502181726 75 171 1.0 5.0 0.00 0.00 0.00 40 1022.4
20260502181226 76 56 1.0 5.0 0.00 0.00 0.00 41 1022.4
20260502180722 75 142 1.0 2.0 0.00 0.00 0.00 40 1022.5
20260502180220 75 225 2.0 3.0 0.00 0.00 0.00 38 1022.6
20260502170138 72 49 1.0 3.0 0.00 0.00 0.00 41 1023.6
20260502164125 71 40 0.0 1.0 0.00 0.00 0.00 45 1023.6
20260502163621 71 118 0.0 3.0 0.00 0.00 0.00 44 1023.6
20260502163118 71 359 3.0 6.0 0.00 0.00 0.00 45 1023.7
20260502162614 71 147 0.0 3.0 0.00 0.00 0.00 46 1023.5
20260502162112 71 69 1.0 2.0 0.00 0.00 0.00 46 1023.4
20260502161609 71 263 3.0 5.0 0.00 0.00 0.00 45 1023.5
20260502161106 71 118 0.0 1.0 0.00 0.00 0.00 48 1023.5
20260502160604 71 56 3.0 5.0 0.00 0.00 0.00 49 1023.5
20260502152017 68 357 3.0 5.0 0.00 0.00 0.00 61 1023.6
20260502151513 66 130 1.0 1.0 0.00 0.00 0.00 64 1023.6
20260502151011 66 38 3.0 7.0 0.00 0.00 0.00 64 1023.8
20260502150508 66 37 3.0 7.0 0.00 0.00 0.00 64 1023.6
20260502130353 58 113 0.0 0.0 0.00 0.00 0.00 79 1023.4
20260502123336 55 105 0.0 1.0 0.00 0.00 0.00 85 1023.0
20260502122833 53 117 0.0 0.0 0.00 0.00 0.00 89 1023.0
20260502122328 52 117 0.0 0.0 0.00 0.00 0.00 91 1023.2
20260502121827 51 119 0.0 0.0 0.00 0.00 0.00 92 1023.0
20260502121324 50 121 0.0 0.0 0.00 0.00 0.00 93 1022.8
20260502120821 49 124 0.0 0.0 0.00 0.00 0.00 94 1022.8
20260502120317 49 123 0.0 0.0 0.00 0.00 0.00 93 1022.7
20260502115815 49 124 0.0 0.0 0.00 0.00 0.00 93 1022.5
20260502115312 49 120 0.0 0.0 0.00 0.00 0.00 93 1022.4
20260502114808 48 124 0.0 0.0 0.00 0.00 0.00 93 1022.3
20260502114305 49 126 0.0 0.0 0.00 0.00 0.00 93 1022.2
20260502113802 48 127 0.0 0.0 0.00 0.00 0.00 93 1022.2
20260502113300 48 120 0.0 0.0 0.00 0.00 0.00 93 1022.0
20260502112758 48 120 0.0 0.0 0.00 0.00 0.00 93 1021.8
20260502112255 48 120 0.0 0.0 0.00 0.00 0.00 93 1021.9
20260502111752 49 118 0.0 0.0 0.00 0.00 0.00 93 1021.7
20260502111250 48 120 0.0 0.0 0.00 0.00 0.00 92 1021.7
20260502110747 49 124 0.0 0.0 0.00 0.00 0.00 92 1021.5
20260502110245 49 124 0.0 0.0 0.00 0.00 0.00 91 1021.6
20260502105743 49 125 0.0 0.0 0.00 0.00 0.00 91 1021.6
20260502105238 49 124 0.0 0.0 0.00 0.00 0.00 91 1021.4
20260502104737 50 127 0.0 0.0 0.00 0.00 0.00 91 1021.5
20260502104234 50 123 0.0 0.0 0.00 0.00 0.00 90 1021.6
20260502103731 50 139 0.0 0.0 0.00 0.00 0.00 90 1021.4
20260502103229 50 138 0.0 1.0 0.00 0.00 0.00 91 1021.3
20260502102725 50 120 0.0 0.0 0.00 0.00 0.00 90 1021.2
20260502102222 50 120 0.0 0.0 0.00 0.00 0.00 90 1021.1
20260502101720 51 131 0.0 0.0 0.00 0.00 0.00 90 1021.2
20260502101218 51 115 0.0 0.0 0.00 0.00 0.00 90 1021.4
20260502100716 51 120 0.0 0.0 0.00 0.00 0.00 89 1021.3
20260502100214 51 128 0.0 1.0 0.00 0.00 0.00 90 1021.4
20260502091148 53 145 0.0 2.0 0.00 0.00 0.00 86 1020.8
20260502090645 52 133 0.0 1.0 0.00 0.00 0.00 88 1021.0
20260502090142 52 133 0.0 0.0 0.00 0.00 0.00 89 1021.2
20260502080105 51 120 0.0 0.0 0.00 0.00 0.00 91 1020.9
20260502071038 53 127 0.0 0.0 0.00 0.00 0.00 87 1021.0
20260502070536 53 127 0.0 0.0 0.00 0.00 0.00 86 1021.1
20260502070034 53 124 0.0 0.0 0.00 0.00 0.00 86 1021.2
20260502065532 54 77 1.0 1.0 0.00 0.00 0.00 86 1021.0
20260502065029 54 135 0.0 1.0 0.00 0.00 0.00 86 1021.0
20260502064527 53 106 1.0 1.0 0.00 0.00 0.00 86 1021.1
20260502064024 53 130 0.0 0.0 0.00 0.00 0.00 86 1020.9
20260502063521 53 131 0.0 0.0 0.00 0.00 0.00 85 1021.1
20260502063014 54 124 0.0 0.0 0.00 0.00 0.00 84 1020.9
20260502062510 54 131 0.0 0.0 0.00 0.00 0.00 84 1021.0
20260502062009 54 122 0.0 0.0 0.00 0.00 0.00 83 1021.0
20260502061506 55 124 0.0 0.0 0.00 0.00 0.00 82 1021.0
20260502061003 54 150 0.0 1.0 0.00 0.00 0.00 83 1021.1
20260502060458 54 119 0.0 0.0 0.00 0.00 0.00 84 1021.0
20260502055955 54 137 0.0 0.0 0.00 0.00 0.00 84 1021.2
20260502055452 54 127 0.0 0.0 0.00 0.00 0.00 83 1021.2
20260502054947 54 126 0.0 0.0 0.00 0.00 0.00 83 1021.2
20260502054444 55 127 0.0 0.0 0.00 0.00 0.00 83 1021.3
20260502053941 55 132 0.0 0.0 0.00 0.00 0.00 83 1021.2
20260502053438 56 135 0.0 0.0 0.00 0.00 0.00 82 1021.3
20260502052936 56 128 0.0 0.0 0.00 0.00 0.00 81 1021.3
20260502052434 56 190 1.0 1.0 0.00 0.00 0.00 80 1021.1
20260502051932 56 135 0.0 0.0 0.00 0.00 0.00 79 1021.1
20260502051430 56 129 0.0 0.0 0.00 0.00 0.00 79 1020.9
20260502050927 56 123 0.0 0.0 0.00 0.00 0.00 78 1021.0
20260502050423 57 123 0.0 0.0 0.00 0.00 0.00 75 1021.0
20260502045921 57 130 0.0 0.0 0.00 0.00 0.00 75 1021.1
20260502045417 57 133 0.0 0.0 0.00 0.00 0.00 75 1021.0
20260502044914 57 125 0.0 0.0 0.00 0.00 0.00 75 1020.8
20260502044415 57 127 0.0 0.0 0.00 0.00 0.00 75 1020.9
20260502043912 57 133 0.0 0.0 0.00 0.00 0.00 75 1021.0
20260502043410 57 120 0.0 1.0 0.00 0.00 0.00 75 1021.0
20260502042909 58 128 0.0 0.0 0.00 0.00 0.00 74 1020.8
20260502042407 58 129 0.0 1.0 0.00 0.00 0.00 73 1020.9
20260502041904 58 146 0.0 0.0 0.00 0.00 0.00 73 1021.0
20260502041401 59 134 0.0 0.0 0.00 0.00 0.00 72 1021.0
20260502040859 59 139 0.0 0.0 0.00 0.00 0.00 71 1021.1
20260502040355 59 126 0.0 1.0 0.00 0.00 0.00 71 1020.9
20260502035851 59 123 0.0 1.0 0.00 0.00 0.00 72 1020.9
20260502035348 59 142 0.0 1.0 0.00 0.00 0.00 70 1021.0
20260502034845 59 127 0.0 1.0 0.00 0.00 0.00 70 1020.8
20260502034344 59 126 0.0 0.0 0.00 0.00 0.00 71 1020.8
20260502033842 59 122 0.0 0.0 0.00 0.00 0.00 72 1020.4
20260502033339 59 120 0.0 0.0 0.00 0.00 0.00 72 1020.6
20260502032836 60 129 0.0 1.0 0.00 0.00 0.00 71 1020.5
20260502032332 60 148 0.0 0.0 0.00 0.00 0.00 71 1020.5
20260502031830 60 127 0.0 2.0 0.00 0.00 0.00 70 1020.4
20260502031328 60 152 1.0 1.0 0.00 0.00 0.00 69 1020.6
20260502030826 60 138 0.0 1.0 0.00 0.00 0.00 69 1020.6
20260502030324 60 133 0.0 0.0 0.00 0.00 0.00 70 1020.6
20260502025821 60 129 0.0 1.0 0.00 0.00 0.00 70 1020.4
20260502025319 60 137 1.0 1.0 0.00 0.00 0.00 70 1020.3
20260502024816 60 139 0.0 1.0 0.00 0.00 0.00 70 1020.1
20260502024314 60 141 0.0 0.0 0.00 0.00 0.00 70 1020.1
20260502023812 60 135 0.0 0.0 0.00 0.00 0.00 69 1019.9
20260502023309 60 146 1.0 1.0 0.00 0.00 0.00 69 1019.9
20260502022807 60 138 0.0 1.0 0.00 0.00 0.00 69 1019.9
20260502022306 60 84 0.0 1.0 0.00 0.00 0.00 70 1019.9
20260502021800 61 144 0.0 1.0 0.00 0.00 0.00 68 1019.8
20260502021257 61 141 0.0 1.0 0.00 0.00 0.00 68 1019.8
20260502020754 61 34 1.0 1.0 0.00 0.00 0.00 67 1019.9
20260502020252 61 137 0.0 0.0 0.00 0.00 0.00 68 1019.8
20260502015749 61 147 0.0 2.0 0.00 0.00 0.00 67 1019.6
20260502015245 61 123 0.0 1.0 0.00 0.00 0.00 69 1019.5
20260502014743 61 82 0.0 1.0 0.00 0.00 0.00 69 1019.4
20260502014239 61 138 0.0 2.0 0.00 0.00 0.00 68 1019.4
20260502013736 61 122 0.0 0.0 0.00 0.00 0.00 69 1019.1
20260502013231 61 194 1.0 2.0 0.00 0.00 0.00 68 1019.2
20260502012728 61 98 2.0 2.0 0.00 0.00 0.00 66 1018.9
20260502012226 62 124 0.0 2.0 0.00 0.00 0.00 67 1018.9
20260502011723 62 136 1.0 1.0 0.00 0.00 0.00 69 1018.7
20260502011219 62 150 1.0 3.0 0.00 0.00 0.00 67 1018.8
20260502010717 62 128 0.0 1.0 0.00 0.00 0.00 68 1018.5
20260502010213 62 173 1.0 2.0 0.00 0.00 0.00 66 1018.5
20260502005710 62 143 1.0 1.0 0.00 0.00 0.00 68 1018.2
20260502005208 62 139 1.0 1.0 0.00 0.00 0.00 68 1018.2
20260502004704 62 181 1.0 2.0 0.00 0.00 0.00 66 1018.1
20260502004200 63 171 1.0 1.0 0.00 0.00 0.00 69 1017.9
20260502003658 63 141 0.0 2.0 0.00 0.00 0.00 66 1017.9
20260502003156 63 160 1.0 2.0 0.00 0.00 0.00 66 1017.8
20260502002651 63 125 0.0 2.0 0.00 0.00 0.00 63 1017.9
20260502002149 64 52 1.0 5.0 0.00 0.00 0.00 63 1017.9
20260502001646 64 137 0.0 2.0 0.00 0.00 0.00 63 1017.5
20260502001144 64 39 1.0 5.0 0.00 0.00 0.00 63 1017.5
20260502000642 64 122 2.0 3.0 0.00 0.00 0.00 63 1017.4
20260502000139 63 120 2.0 3.0 0.00 0.00 0.00 61 1017.4
20260501235635 64 62 3.0 3.0 0.00 0.00 0.00 62 1017.5
20260501235131 64 99 3.0 5.0 0.00 0.00 0.00 61 1017.4
20260501234626 64 120 0.0 3.0 0.00 0.00 0.00 62 1017.4
20260501234124 64 174 1.0 1.0 0.00 0.00 0.00 63 1017.6
20260501233622 64 76 1.0 2.0 0.00 0.00 0.00 61 1017.5
20260501233119 64 53 2.0 5.0 0.00 0.00 0.00 59 1017.5
20260501232615 64 74 3.0 5.0 0.00 0.00 0.00 60 1017.4
20260501232113 64 17 1.0 6.0 0.00 0.00 0.00 60 1017.2
20260501231610 64 111 0.0 5.0 0.00 0.00 0.00 61 1017.0
20260501231108 64 91 1.0 6.0 0.00 0.00 0.00 61 1017.1